SL-16 R/B

Satellite information

Favourite Embed

Satellite Type and Status

ROCKET BODYIN ORBIT

Key statistics

Satellite SL-16 R/B at a glance.

Uptime

6743

Days in orbit

Revolutions

≈ 14.1

Per day

Orbit

LEO

Low Earth Orbit

Inclination

71.0

Latest

Satellite identification and parameters

Extended collection of information and parameters for SL-16 R/B.

Object identification

Identified? True

Debris? False

Object name: SL-16 R/B

International designator: 2007-029B

Object number (NORAD): 31793

Object ID (CCSDS): 31793

Country: COMMONWEALTH OF INDEPENDENT STATES (CIS)

Current information (Y/N): Y

RCS size: LARGE

Orbital parameters

Period: 101.78 minutes

Inclination: 70.9756 deg

SMA: 7221.079 km

Apoapsis: 844.525 km

Periapsis: 841.363 km

RAAN: 356.064 deg

Eccentricy: 0.00021892

Argument of periapsis: 262.4289 deg

Mean anomaly: 108.4804 deg

Mean motion: 14.14814824 rev/day

Mean motion (dot): -0.0000005 rev/day2

B* drag term: -0.000001237328 1/REarth

Two-line elements (TLE)

Creation date: Dec. 12, 2025, 10:14 a.m.

Reference frame: TEME

Reference center: EARTH

Epoch: Dec. 12, 2025, 7:24 a.m. UTC

TLE line 0: 0 SL-16 R/B

TLE line 1: 1 31793U 07029B 25346.30869573 -.00000050 00000-0 -12373-5 0 9990

TLE line 2: 2 31793 70.9756 356.0640 0002189 262.4289 108.4804 14.14814824953016

Live tracking on map

Real-time ground track for satellite SL-16 R/B.

In-orbit conjunctions

A list of the most updated potential collisions computed for object SL-16 R/B.

Target Orbit TCA Probability of collision Miss distance Type
CZ-4 DEB SSO 2025-11-21 13:41:46 0.002329173 45.0 (m) DEBRIS
FENGYUN 1C DEB SSO 2025-09-14 08:00:55 0.0001400293 299.0 (m) DEBRIS
FENGYUN 1C DEB SSO 2025-09-03 21:17:06 0.0006407273 57.0 (m) DEBRIS
CZ-6A DEB LEO 2025-02-15 14:41:45 0.000335423 719.0 (m) DEBRIS
FENGYUN 1C DEB SSO 2024-11-10 10:14:10 0.0002256167 965.0 (m) DEBRIS

Associated space launch

Second generation ELING satellite

SL-16 R/B was lifted into orbit during the mission ‘Zenit 2M | Tselina-2 23’, on board a Zenit 2M space rocket.

The launch took place on June 29, 2007, 10 a.m. from 45/1.

For more information about the launch, click the button.

Launch to space Zenit 2M | Tselina-2 23
Zenit 2M | Tselina-2 23

Agency: N/A

Status: Launch Successful

Launch date: June 29, 2007, 10 a.m. UTC

Rocket: Zenit 2M

Launch pad: 45/1

Location: Baikonur Cosmodrome, Republic of Kazakhstan

...

Latest news about this satellite

There are no fresh news available about this satellite. Check back as we update our databases every day.


Newsletter sign-up

Weekly statistics, charts and insights to help you stay on top of the space industry.